Pardubice, Czech Republic

1:16 PM CEST on April 22, 2018 (GMT +0200)
Pardubice

Weather History for LKPD - September, 2012

Change the Weather History Date:

Sunday, September 23, 2012

  Actual Average Record
Temperature  
Mean Temperature 49 °F -  
Max Temperature 59 °F - - ()
Min Temperature 39 °F - - ()
Degree Days  
Heating Degree Days 16    
Moisture  
Dew Point 42 °F    
Average Humidity 76    
Maximum Humidity 100    
Minimum Humidity 51    
Precipitation  
Precipitation 0.00 in - - ()
Sea Level Pressure  
Sea Level Pressure 30.07 in    
Wind  
Wind Speed 2 mph ()    
Max Wind Speed 5 mph    
Max Gust Speed -    
Visibility 6.2 miles    
Events Fog    
T = Trace of Precipitation, MM = Missing Value Source: Averaged Metar Reports

Daily Weather History Graph

Daily Weather History Graph

Search for Another Location

Airport or City:

Astronomy

Sep. 23, 2012 Rise Set
Actual Time 6:45 AM CEST 6:52 PM CEST
Civil Twilight 6:13 AM CEST 7:24 PM CEST
Nautical Twilight 5:34 AM CEST 8:02 PM CEST
Astronomical Twilight 4:55 AM CEST 8:41 PM CEST
Moon 3:11 PM CEST (9/23) No Moon Set
Length of Visible Light 13h 11m
Length of Day
12h 07m
First Quarter, 57% of the Moon is Illuminated
Sep 23
First Quarter
Sep 30
Full
Oct 8
Last Quarter
Oct 15
New
Oct 22
First Quarter

Hourly Weather History & Observations

Time (CEST) Temp. Dew Point Humidity Pressure Visibility Wind Dir Wind Speed Gust Speed Precip Events Conditions
12:00 AM 44.6 °F 41.0 °F 87% 30.09 in - WSW 2.3 mph - N/A   Clear
1:00 AM 44.6 °F 41.0 °F 87% 30.09 in - Calm Calm - N/A   Clear
2:00 AM 42.8 °F 41.0 °F 93% 30.12 in - Calm Calm - N/A   Clear
3:00 AM 41.0 °F 39.2 °F 93% 30.12 in - Calm Calm - N/A   Clear
4:00 AM 39.2 °F 37.4 °F 93% 30.12 in - East 2.3 mph - N/A   Clear
5:00 AM 39.2 °F 39.2 °F 100% 30.12 in 6.2 mi ESE 2.3 mph - N/A Fog Shallow Fog
9:00 AM 46.4 °F 42.8 °F 87% 30.12 in - Calm Calm - N/A   Clear
10:00 AM 50.0 °F 44.6 °F 82% 30.15 in - Variable 2.3 mph - N/A   Clear
11:00 AM 53.6 °F 42.8 °F 67% 30.15 in - Variable 2.3 mph - N/A   Clear
12:00 PM 55.4 °F 42.8 °F 63% 30.12 in - Variable 1.2 mph - N/A   Clear
1:00 PM 57.2 °F 42.8 °F 59% 30.09 in 6.2 mi Variable 3.5 mph - N/A   Mostly Cloudy
2:00 PM 57.2 °F 42.8 °F 59% 30.09 in 6.2 mi South 3.5 mph - N/A   Scattered Clouds
3:00 PM 59.0 °F 41.0 °F 51% 30.06 in 6.2 mi Variable 1.2 mph - N/A   Scattered Clouds
4:00 PM 59.0 °F 41.0 °F 51% 30.04 in 6.2 mi ENE 3.5 mph - N/A   Scattered Clouds
5:00 PM 59.0 °F 42.8 °F 55% 30.04 in - ESE 4.6 mph - N/A   Clear
6:00 PM 59.0 °F 41.0 °F 51% 30.01 in - ENE 3.5 mph - N/A   Clear
7:00 PM 53.6 °F 42.8 °F 67% 30.01 in - ENE 2.3 mph - N/A   Clear
8:00 PM 50.0 °F 42.8 °F 76% 29.98 in - East 3.5 mph - N/A   Clear
9:00 PM 48.2 °F 44.6 °F 87% 29.98 in - Calm Calm - N/A   Clear
10:00 PM 46.4 °F 42.8 °F 87% 29.95 in - Calm Calm - N/A   Clear
11:00 PM 46.4 °F 44.6 °F 93% 29.92 in - ENE 2.3 mph - N/A   Clear